Date,TemperatureHighF,TemperatureAvgF,TemperatureLowF,DewpointHighF,DewpointAvgF,DewpointLowF,HumidityHigh,HumidityAvg,HumidityLow,PressureMaxIn,PressureMinIn,WindSpeedMaxMPH,WindSpeedAvgMPH,GustSpeedMaxMPH,PrecipitationSumIn
2013-6-1,54.7,45.5,38.5,51.8,44.1,36.9,97,95,87,27.89,27.61,22,4,24,0.13
2013-6-2,54.6,43.3,34.4,37.7,34.8,32.6,100,74,45,28.00,27.89,21,5,21,0.01
2013-6-3,62.7,46.5,30.3,41.5,32.6,29.2,97,65,31,28.09,28.00,13,2,13,0.00
2013-6-4,62.0,49.2,32.7,44.1,33.6,27.8,100,61,30,28.16,28.09,12,1,12,0.00
2013-6-5,58.9,51.2,39.2,45.2,37.2,30.0,90,60,44,28.13,28.06,15,3,17,0.00
2013-6-6,58.1,49.4,39.1,44.5,41.7,36.2,94,76,55,28.08,28.03,11,1,11,0.00
2013-6-7,69.8,53.0,33.0,48.7,38.1,32.0,100,64,30,28.03,27.94,13,1,13,0.00
2013-6-8,72.5,56.7,35.5,52.9,40.9,32.3,98,62,25,27.99,27.93,13,1,14,0.00
2013-6-9,67.0,56.5,44.1,52.2,46.5,36.4,92,71,45,28.01,27.88,16,2,19,0.12
2013-6-10,66.0,58.7,52.2,59.7,55.5,50.4,97,90,74,27.88,27.81,11,2,12,0.08
2013-6-11,71.9,61.7,49.7,57.6,52.5,47.8,97,75,45,27.89,27.80,13,2,14,0.11
2013-6-12,72.7,61.2,45.0,53.6,49.3,44.2,98,68,42,27.95,27.86,15,2,15,0.00
2013-6-13,73.8,60.7,47.7,51.4,46.4,42.0,85,62,35,28.14,27.95,14,2,14,0.00
2013-6-14,73.1,58.2,39.0,47.4,42.7,37.1,97,60,36,28.14,27.95,11,1,11,0.00
2013-6-15,70.8,60.5,51.3,61.1,51.8,34.5,87,74,44,27.95,27.78,12,1,12,0.00
2013-6-16,73.0,60.6,53.5,57.6,52.6,49.0,97,77,45,27.88,27.75,18,2,18,0.31
2013-6-17,67.3,53.1,43.8,53.4,44.4,35.6,97,75,43,28.07,27.87,11,1,11,0.05
2013-6-18,69.3,55.2,36.7,50.0,41.3,33.2,97,63,40,28.14,28.04,13,1,14,0.00
2013-6-19,74.7,61.9,47.5,59.3,49.1,32.8,92,64,44,28.04,27.95,12,1,12,0.01
2013-6-20,70.8,63.0,58.3,63.5,59.3,57.2,96,88,73,28.08,28.00,13,1,13,0.01
2013-6-21,63.6,58.9,56.5,60.1,57.4,55.4,98,95,87,28.08,27.90,15,2,15,0.01
2013-6-22,63.0,59.2,56.5,60.1,57.9,55.4,98,95,89,28.10,27.94,15,2,15,0.07
2013-6-23,72.1,63.5,56.6,66.8,61.6,56.0,99,94,81,27.94,27.72,14,2,16,0.05
2013-6-24,82.5,70.3,57.6,59.7,55.0,48.3,93,63,33,27.88,27.79,16,2,18,0.00
2013-6-25,85.0,72.2,57.0,64.8,59.0,53.5,92,66,44,27.84,27.78,9,1,11,0.00
2013-6-26,77.8,66.3,57.9,68.9,61.4,54.1,100,85,68,27.80,27.71,18,1,18,0.82
2013-6-27,80.0,66.9,59.6,64.5,61.0,58.5,98,83,50,27.77,27.68,16,1,16,0.09
2013-6-28,69.8,62.2,58.1,65.1,60.4,56.2,98,94,78,27.84,27.67,9,1,10,0.53
2013-6-29,71.5,61.5,49.3,56.4,51.4,47.2,96,72,45,28.00,27.83,12,2,12,0.00
2013-6-30,78.8,63.9,45.5,59.5,52.0,44.7,98,70,40,28.14,28.00,11,1,12,0.00